contact:dominique.lefevre@mio.osupytheas.fr, maurice.libes@osupytheas.fr, didier.mallarino@osupytheas.fr
Project:EMSO http://www.emso-fr.org/EMSO-France
Depth: 2436.0 m
Title:EMSO Ligure Ouest : Data MII capteur AQUADOPP
Date,Latitude,Longitude,X_East,Y_North,Z_Up,Amplitude_X,Amplitude_Y,Amplitude_Z,Batterie,SoundSpeed,Heading,Pitch,Roll,Pressure,TIS,Speed,Direction
, degrees North, degrees East, m.s-1, m.s-1,m.s-1, 1, 1, 1, Volt, m.s-1, degree, degree, degree, dbar, degree_C, m.s-1, degree
2023-08-01T00:04:03,42.805,6.029,0.0,-0.009,-0.019,104.0,103.0,102.0,13.4,1505.2,346.7,-0.7,1.8,2471.365,13.29,0.009,180.0
2023-08-01T00:07:03,42.805,6.029,-0.002,-0.013,-0.017,105.0,103.0,101.0,13.3,1505.2,342.5,-0.8,1.8,2471.372,13.29,0.013,188.7
2023-08-01T00:10:03,42.805,6.029,-0.009,0.013,-0.039,104.0,104.0,102.0,13.4,1505.2,341.5,-0.8,1.8,2471.317,13.29,0.015,325.3
2023-08-01T00:13:03,42.805,6.029,-0.002,0.004,-0.022,105.0,102.0,103.0,13.4,1505.2,332.5,-0.8,1.8,2471.341,13.29,0.004,333.4
2023-08-01T00:16:03,42.805,6.029,0.001,-0.03,-0.057,103.0,103.0,101.0,13.3,1505.2,345.9,-0.8,1.8,2471.353,13.29,0.03,178.1
2023-08-01T00:19:03,42.805,6.029,-0.02,-0.009,-0.021,103.0,104.0,101.0,13.4,1505.2,337.8,-0.8,1.8,2471.337,13.29,0.021,245.8
2023-08-01T00:22:03,42.805,6.029,-0.018,0.0,-0.032,104.0,104.0,102.0,13.3,1505.2,350.7,-0.8,1.8,2471.321,13.29,0.018,270.0
2023-08-01T00:25:03,42.805,6.029,-0.005,-0.008,-0.049,103.0,104.0,102.0,13.4,1505.2,351.4,-0.7,1.8,2471.326,13.29,0.009,212.0
2023-08-01T00:28:03,42.805,6.029,-0.009,0.0,-0.017,103.0,104.0,102.0,13.4,1505.2,342.5,-0.8,1.8,2471.309,13.29,0.009,270.0
2023-08-01T00:31:03,42.805,6.029,-0.003,0.0,-0.037,103.0,104.0,103.0,13.4,1505.2,326.0,-0.7,1.8,2471.31,13.29,0.003,270.0
2023-08-01T00:34:03,42.805,6.029,0.0,-0.011,-0.065,104.0,103.0,102.0,13.3,1505.2,325.7,-0.7,1.8,2471.314,13.29,0.011,180.0
2023-08-01T00:37:03,42.805,6.029,-0.017,0.009,-0.025,104.0,103.0,102.0,13.4,1505.2,334.8,-0.7,1.8,2471.33,13.29,0.019,297.9
2023-08-01T00:40:03,42.805,6.029,0.004,-0.007,-0.034,104.0,101.0,103.0,13.3,1505.2,342.3,-0.8,1.8,2471.323,13.29,0.008,150.3
2023-08-01T00:43:03,42.805,6.029,-0.004,-0.014,-0.026,104.0,104.0,103.0,13.3,1505.2,349.9,-0.8,1.8,2471.308,13.29,0.014,195.9
2023-08-01T00:46:03,42.805,6.029,-0.002,0.005,-0.032,104.0,103.0,103.0,13.4,1505.2,329.3,-0.8,1.8,2471.343,13.29,0.005,338.2
2023-08-01T00:49:03,42.805,6.029,0.018,-0.011,-0.038,104.0,104.0,102.0,13.4,1505.2,344.4,-0.8,1.8,2471.355,13.29,0.021,121.4
2023-08-01T00:52:03,42.805,6.029,-0.008,0.005,0.004,104.0,103.0,103.0,13.4,1505.2,345.9,-0.8,1.8,2471.268,13.29,0.009,302.0
2023-08-01T00:55:03,42.805,6.029,0.02,-0.019,-0.024,104.0,104.0,102.0,13.3,1505.2,333.0,-0.8,1.8,2471.298,13.29,0.027,133.5
2023-08-01T00:58:03,42.805,6.029,-0.011,-0.008,-0.042,104.0,104.0,102.0,13.3,1505.2,334.6,-0.8,1.8,2471.307,13.29,0.013,234.0
2023-08-01T01:04:03,42.805,6.029,0.0,0.003,-0.019,104.0,104.0,104.0,13.4,1505.2,329.7,-0.8,1.8,2471.366,13.29,0.003,0.0
2023-08-01T01:07:03,42.805,6.029,-0.011,-0.021,-0.021,103.0,103.0,103.0,13.4,1505.2,336.5,-0.7,1.8,2471.337,13.29,0.023,207.6
2023-08-01T01:10:03,42.805,6.029,0.003,-0.007,-0.019,104.0,104.0,101.0,13.4,1505.2,333.9,-0.7,1.8,2471.314,13.29,0.007,156.8
2023-08-01T01:13:03,42.805,6.029,-0.04,0.013,-0.014,104.0,103.0,102.0,13.3,1505.2,334.8,-0.8,1.8,2471.304,13.29,0.042,288.0
2023-08-01T01:16:03,42.805,6.029,-0.012,-0.011,-0.025,104.0,103.0,100.0,13.4,1505.2,334.9,-0.8,1.8,2471.323,13.29,0.016,227.5
2023-08-01T01:19:03,42.805,6.029,-0.011,-0.006,-0.037,104.0,105.0,102.0,13.4,1505.2,353.0,-0.7,1.8,2471.342,13.29,0.012,241.4
2023-08-01T01:22:03,42.805,6.029,-0.019,0.0,-0.02,104.0,104.0,102.0,13.3,1505.2,329.0,-0.8,1.8,2471.319,13.29,0.019,270.0
2023-08-01T01:25:03,42.805,6.029,-0.003,-0.001,-0.045,103.0,104.0,100.0,13.4,1505.2,327.6,-0.8,1.8,2471.287,13.29,0.003,251.6
2023-08-01T01:28:03,42.805,6.029,-0.003,-0.024,-0.036,104.0,104.0,102.0,13.4,1505.2,322.3,-0.8,1.8,2471.313,13.29,0.024,187.1
2023-08-01T01:31:03,42.805,6.029,-0.012,0.001,-0.037,104.0,103.0,102.0,13.4,1505.2,344.0,-0.8,1.9,2471.263,13.29,0.012,274.8
2023-08-01T01:34:03,42.805,6.029,-0.01,-0.012,-0.025,103.0,103.0,102.0,13.3,1505.2,334.4,-0.8,1.8,2471.321,13.29,0.015,219.8
2023-08-01T01:37:03,42.805,6.029,-0.021,-0.001,-0.022,103.0,103.0,103.0,13.3,1505.2,334.3,-0.7,1.8,2471.271,13.29,0.021,267.3
2023-08-01T01:40:03,42.805,6.029,0.0,-0.031,-0.042,104.0,103.0,103.0,13.3,1505.2,332.1,-0.8,1.8,2471.289,13.29,0.03,180.0
2023-08-01T01:43:03,42.805,6.029,0.009,-0.017,-0.029,104.0,104.0,102.0,13.3,1505.2,341.9,-0.7,1.9,2471.26,13.29,0.019,152.1
2023-08-01T01:46:03,42.805,6.029,-0.018,-0.016,-0.053,105.0,104.0,102.0,13.4,1505.2,353.1,-0.7,1.8,2471.282,13.29,0.024,228.4
2023-08-01T01:49:03,42.805,6.029,-0.019,-0.021,-0.041,103.0,103.0,102.0,13.4,1505.2,354.6,-0.8,1.8,2471.294,13.29,0.028,222.1
2023-08-01T01:52:03,42.805,6.029,-0.008,-0.006,-0.038,104.0,103.0,102.0,13.4,1505.2,331.8,-0.8,1.8,2471.317,13.29,0.01,233.1
2023-08-01T01:55:03,42.805,6.029,-0.016,-0.02,-0.035,104.0,102.0,103.0,13.4,1505.2,347.0,-0.8,1.8,2471.316,13.29,0.025,218.7
2023-08-01T01:58:03,42.805,6.029,0.0,-0.02,-0.042,104.0,102.0,104.0,13.4,1505.2,331.4,-0.8,1.8,2471.287,13.29,0.02,180.0
2023-08-01T02:04:03,42.805,6.029,0.019,-0.003,-0.046,103.0,104.0,102.0,13.4,1505.2,329.2,-0.8,1.8,2471.334,13.28,0.019,99.0
2023-08-01T02:07:03,42.805,6.029,-0.013,-0.007,-0.017,105.0,105.0,101.0,13.4,1505.2,327.4,-0.8,1.8,2471.308,13.29,0.014,241.7
2023-08-01T02:10:03,42.805,6.029,0.0,0.007,-0.005,103.0,103.0,103.0,13.4,1505.2,346.5,-0.8,1.8,2471.313,13.29,0.007,0.0
2023-08-01T02:13:03,42.805,6.029,0.0,0.0,-0.004,105.0,103.0,102.0,13.4,1505.2,352.7,-0.8,1.8,2471.323,13.29,0.0,0.0
2023-08-01T02:16:03,42.805,6.029,-0.006,0.0,-0.012,104.0,104.0,102.0,13.4,1505.2,348.4,-0.8,1.8,2471.34,13.29,0.006,270.0
2023-08-01T02:19:03,42.805,6.029,0.009,-0.039,-0.041,105.0,104.0,101.0,13.3,1505.2,349.8,-0.7,1.9,2471.305,13.29,0.04,167.0
2023-08-01T02:22:03,42.805,6.029,-0.025,-0.012,-0.03,104.0,104.0,102.0,13.3,1505.2,353.4,-0.8,1.8,2471.307,13.29,0.027,244.4
2023-08-01T02:25:03,42.805,6.029,0.003,-0.028,-0.028,104.0,104.0,102.0,13.4,1505.2,336.8,-0.8,1.8,2471.322,13.29,0.028,173.9
2023-08-01T02:28:03,42.805,6.029,-0.005,0.012,-0.004,104.0,103.0,102.0,13.4,1505.2,349.9,-0.7,1.8,2471.28,13.29,0.013,337.4
2023-08-01T02:31:03,42.805,6.029,-0.024,-0.011,-0.033,106.0,104.0,101.0,13.4,1505.2,332.9,-0.7,1.8,2471.299,13.29,0.026,245.4
2023-08-01T02:34:03,42.805,6.029,0.003,-0.02,0.007,106.0,103.0,102.0,13.4,1505.2,326.8,-0.8,1.8,2471.298,13.29,0.02,171.5
2023-08-01T02:37:03,42.805,6.029,-0.002,-0.025,-0.032,104.0,103.0,102.0,13.3,1505.2,325.2,-0.8,1.8,2471.275,13.29,0.025,184.6
2023-08-01T02:40:03,42.805,6.029,-0.008,-0.022,-0.032,105.0,103.0,101.0,13.4,1505.2,328.8,-0.8,1.8,2471.276,13.29,0.023,200.0
2023-08-01T02:43:03,42.805,6.029,-0.001,-0.015,-0.068,104.0,104.0,102.0,13.4,1505.2,322.9,-0.8,1.8,2471.284,13.29,0.015,183.8
2023-08-01T02:46:03,42.805,6.029,0.015,0.008,-0.003,105.0,104.0,102.0,13.4,1505.2,323.4,-0.8,1.8,2471.256,13.29,0.017,61.9
2023-08-01T02:49:03,42.805,6.029,-0.002,0.015,-0.037,104.0,104.0,102.0,13.4,1505.2,326.8,-0.7,1.8,2471.258,13.29,0.015,352.4
2023-08-01T02:52:03,42.805,6.029,-0.003,-0.011,0.013,106.0,103.0,102.0,13.3,1505.2,327.3,-0.8,1.8,2471.287,13.29,0.011,195.3
2023-08-01T02:55:03,42.805,6.029,-0.008,-0.008,-0.027,104.0,104.0,102.0,13.3,1505.2,330.6,-0.8,1.8,2471.319,13.29,0.011,225.0
2023-08-01T02:58:03,42.805,6.029,0.005,-0.034,-0.031,104.0,104.0,102.0,13.4,1505.2,336.4,-0.8,1.8,2471.312,13.29,0.034,171.6
2023-08-01T03:04:03,42.805,6.029,0.0,-0.008,-0.029,105.0,103.0,103.0,13.4,1505.2,335.1,-0.8,1.8,2471.323,13.28,0.008,180.0
2023-08-01T03:07:03,42.805,6.029,0.008,0.0,-0.026,103.0,103.0,103.0,13.4,1505.2,350.3,-0.8,1.8,2471.345,13.29,0.008,90.0
2023-08-01T03:10:03,42.805,6.029,0.001,0.0,0.003,105.0,103.0,101.0,13.3,1505.2,330.6,-0.8,1.8,2471.34,13.29,0.001,90.0
2023-08-01T03:13:03,42.805,6.029,0.009,-0.02,-0.021,106.0,103.0,102.0,13.3,1505.2,354.2,-0.8,1.8,2471.359,13.29,0.021,155.8
2023-08-01T03:16:03,42.805,6.029,0.014,-0.029,-0.029,104.0,103.0,103.0,13.4,1505.2,331.9,-0.7,1.8,2471.317,13.29,0.032,154.2
2023-08-01T03:19:03,42.805,6.029,-0.001,-0.018,-0.027,105.0,103.0,102.0,13.4,1505.2,326.0,-0.7,1.8,2471.307,13.29,0.018,183.2
2023-08-01T03:22:03,42.805,6.029,-0.015,-0.01,-0.021,105.0,105.0,101.0,13.3,1505.2,326.3,-0.8,1.8,2471.353,13.29,0.018,236.3
2023-08-01T03:25:03,42.805,6.029,-0.006,-0.013,-0.034,104.0,103.0,103.0,13.4,1505.2,343.2,-0.7,1.8,2471.33,13.29,0.014,204.8
2023-08-01T03:28:03,42.805,6.029,-0.008,-0.005,-0.043,104.0,105.0,102.0,13.4,1505.2,334.3,-0.7,1.8,2471.304,13.29,0.009,238.0
2023-08-01T03:31:03,42.805,6.029,-0.008,-0.017,-0.037,103.0,105.0,102.0,13.3,1505.2,353.6,-0.8,1.8,2471.357,13.29,0.018,205.2
2023-08-01T03:34:03,42.805,6.029,0.015,-0.022,-0.023,104.0,104.0,103.0,13.4,1505.2,349.8,-0.7,1.8,2471.346,13.29,0.026,145.7
2023-08-01T03:37:03,42.805,6.029,-0.005,-0.012,-0.024,104.0,104.0,102.0,13.4,1505.2,324.4,-0.8,1.8,2471.324,13.29,0.013,202.6
2023-08-01T03:40:03,42.805,6.029,0.004,-0.02,-0.043,104.0,104.0,103.0,13.3,1505.2,326.5,-0.8,1.8,2471.344,13.29,0.02,168.7
2023-08-01T03:43:03,42.805,6.029,-0.023,-0.03,-0.015,104.0,104.0,102.0,13.4,1505.2,329.7,-0.8,1.8,2471.344,13.29,0.037,217.5
2023-08-01T03:46:03,42.805,6.029,-0.005,-0.008,-0.038,104.0,103.0,102.0,13.3,1505.2,351.5,-0.7,1.8,2471.334,13.29,0.009,212.0
2023-08-01T03:49:03,42.805,6.029,0.004,-0.019,-0.039,104.0,103.0,103.0,13.4,1505.2,332.9,-0.8,1.8,2471.352,13.29,0.019,168.1
2023-08-01T03:52:03,42.805,6.029,0.0,-0.018,-0.022,104.0,103.0,103.0,13.3,1505.2,342.5,-0.8,1.8,2471.347,13.29,0.018,180.0
2023-08-01T03:55:03,42.805,6.029,0.0,-0.011,-0.018,104.0,104.0,103.0,13.4,1505.2,330.1,-0.8,1.8,2471.32,13.29,0.011,180.0
2023-08-01T03:58:03,42.805,6.029,-0.012,-0.006,-0.073,105.0,104.0,103.0,13.4,1505.2,332.5,-0.7,1.8,2471.366,13.29,0.013,243.4
2023-08-01T04:04:03,42.805,6.029,-0.007,-0.026,-0.03,106.0,104.0,102.0,13.3,1505.2,338.8,-0.8,1.8,2471.398,13.28,0.026,195.1
2023-08-01T04:07:03,42.805,6.029,-0.001,-0.004,-0.034,104.0,105.0,102.0,13.4,1505.2,343.9,-0.7,1.8,2471.41,13.29,0.004,194.0
2023-08-01T04:10:03,42.805,6.029,0.0,-0.017,0.003,105.0,104.0,102.0,13.3,1505.2,341.9,-0.8,1.8,2471.371,13.29,0.017,180.0
2023-08-01T04:13:03,42.805,6.029,0.003,-0.013,-0.058,105.0,104.0,102.0,13.4,1505.2,331.1,-0.7,1.8,2471.384,13.29,0.013,167.0
2023-08-01T04:16:03,42.805,6.029,-0.013,-0.013,-0.038,105.0,104.0,102.0,13.4,1505.2,336.5,-0.8,1.8,2471.403,13.29,0.018,225.0
2023-08-01T04:19:03,42.805,6.029,0.002,-0.024,0.0,105.0,104.0,102.0,13.3,1505.2,339.3,-0.8,1.9,2471.38,13.29,0.024,175.2
2023-08-01T04:22:03,42.805,6.029,-0.004,-0.001,-0.032,105.0,104.0,101.0,13.4,1505.2,339.5,-0.8,1.8,2471.36,13.29,0.004,256.0
2023-08-01T04:25:03,42.805,6.029,-0.012,-0.016,-0.059,106.0,103.0,102.0,13.4,1505.2,343.4,-0.8,1.8,2471.381,13.29,0.02,216.9
2023-08-01T04:28:03,42.805,6.029,0.0,-0.011,-0.022,105.0,104.0,103.0,13.4,1505.2,329.5,-0.7,1.8,2471.399,13.29,0.011,180.0
2023-08-01T04:31:03,42.805,6.029,-0.007,-0.008,-0.025,105.0,104.0,102.0,13.3,1505.2,325.7,-0.7,1.8,2471.401,13.29,0.01,221.2
2023-08-01T04:34:03,42.805,6.029,-0.036,-0.03,-0.042,106.0,103.0,103.0,13.4,1505.2,326.5,-0.8,1.8,2471.362,13.29,0.046,230.2
2023-08-01T04:37:03,42.805,6.029,-0.044,-0.032,-0.066,105.0,104.0,102.0,13.4,1505.2,336.9,-0.8,1.8,2471.357,13.29,0.054,234.0
2023-08-01T04:40:03,42.805,6.029,-0.008,0.008,-0.001,105.0,104.0,102.0,13.4,1505.2,348.1,-0.7,1.8,2471.385,13.29,0.011,315.0
2023-08-01T04:43:03,42.805,6.029,-0.009,0.019,-0.008,105.0,103.0,103.0,13.4,1505.2,354.4,-0.7,1.8,2471.396,13.29,0.021,334.7
2023-08-01T04:46:03,42.805,6.029,-0.016,-0.027,-0.053,104.0,104.0,103.0,13.4,1505.2,344.3,-0.8,1.8,2471.406,13.29,0.031,210.7
2023-08-01T04:49:03,42.805,6.029,-0.005,0.003,-0.05,104.0,105.0,102.0,13.4,1505.2,338.2,-0.8,1.8,2471.387,13.29,0.005,301.0
2023-08-01T04:52:03,42.805,6.029,-0.006,-0.019,-0.068,105.0,103.0,103.0,13.3,1505.2,329.9,-0.8,1.8,2471.376,13.29,0.019,197.5
2023-08-01T04:55:03,42.805,6.029,0.005,0.009,-0.021,104.0,103.0,102.0,13.4,1505.2,339.9,-0.8,1.8,2471.376,13.29,0.01,29.1
2023-08-01T04:58:03,42.805,6.029,-0.011,-0.006,-0.004,104.0,103.0,103.0,13.3,1505.2,338.0,-0.8,1.8,2471.357,13.29,0.012,241.4
2023-08-01T05:04:03,42.805,6.029,0.003,-0.009,-0.012,103.0,104.0,102.0,13.4,1505.2,354.2,-0.8,1.8,2471.433,13.29,0.009,161.6
2023-08-01T05:07:03,42.805,6.029,-0.01,-0.02,-0.017,105.0,104.0,103.0,13.4,1505.2,331.3,-0.7,1.8,2471.447,13.29,0.022,206.6
2023-08-01T05:10:03,42.805,6.029,-0.011,-0.003,-0.031,105.0,103.0,102.0,13.4,1505.2,336.0,-0.8,1.8,2471.42,13.29,0.011,254.7
2023-08-01T05:13:03,42.805,6.029,-0.02,0.002,-0.027,104.0,104.0,102.0,13.3,1505.2,329.2,-0.8,1.8,2471.459,13.29,0.02,275.7
2023-08-01T05:16:03,42.805,6.029,-0.013,-0.003,-0.013,104.0,103.0,102.0,13.4,1505.2,332.9,-0.8,1.8,2471.428,13.29,0.013,257.0
2023-08-01T05:19:03,42.805,6.029,-0.015,-0.017,-0.012,104.0,104.0,102.0,13.4,1505.2,350.5,-0.8,1.8,2471.419,13.29,0.022,221.4
2023-08-01T05:22:03,42.805,6.029,-0.008,-0.024,-0.033,104.0,104.0,102.0,13.3,1505.2,327.7,-0.8,1.8,2471.408,13.29,0.025,198.4
2023-08-01T05:25:03,42.805,6.029,-0.012,0.006,-0.023,105.0,103.0,102.0,13.4,1505.2,336.8,-0.8,1.8,2471.426,13.29,0.013,296.6
2023-08-01T05:28:03,42.805,6.029,-0.012,-0.006,-0.059,104.0,103.0,102.0,13.4,1505.2,335.0,-0.8,1.8,2471.412,13.29,0.013,243.4
2023-08-01T05:31:03,42.805,6.029,-0.015,-0.005,-0.037,104.0,104.0,102.0,13.4,1505.2,338.3,-0.8,1.8,2471.413,13.29,0.015,251.6
2023-08-01T05:34:03,42.805,6.029,-0.015,-0.023,-0.018,103.0,103.0,103.0,13.3,1505.2,345.0,-0.8,1.8,2471.405,13.29,0.027,213.1
2023-08-01T05:37:03,42.805,6.029,-0.008,-0.027,-0.054,104.0,103.0,102.0,13.4,1505.2,332.0,-0.7,1.8,2471.42,13.29,0.028,196.5
2023-08-01T05:40:03,42.805,6.029,-0.007,-0.009,-0.003,103.0,103.0,102.0,13.4,1505.2,353.7,-0.7,1.8,2471.423,13.29,0.011,217.9
2023-08-01T05:43:03,42.805,6.029,-0.003,-0.004,-0.024,103.0,103.0,102.0,13.4,1505.2,342.9,-0.8,1.8,2471.392,13.29,0.005,216.9
2023-08-01T05:46:03,42.805,6.029,-0.008,-0.015,-0.034,104.0,103.0,102.0,13.4,1505.2,342.7,-0.7,1.8,2471.444,13.29,0.017,208.1
2023-08-01T05:49:03,42.805,6.029,0.006,0.0,-0.005,103.0,104.0,101.0,13.4,1505.2,349.3,-0.8,1.8,2471.468,13.29,0.006,90.0
2023-08-01T05:52:03,42.805,6.029,0.004,-0.01,-0.003,104.0,103.0,103.0,13.4,1505.2,347.4,-0.8,1.8,2471.411,13.29,0.01,158.2
2023-08-01T05:55:03,42.805,6.029,0.007,-0.026,0.005,103.0,104.0,101.0,13.3,1505.2,323.3,-0.8,1.8,2471.423,13.29,0.026,164.9
2023-08-01T05:58:03,42.805,6.029,0.001,-0.003,-0.028,103.0,104.0,102.0,13.3,1505.2,353.0,-0.8,1.8,2471.442,13.29,0.003,161.6
2023-08-01T06:04:03,42.805,6.029,-0.018,-0.002,-0.027,104.0,104.0,102.0,13.4,1505.2,327.3,-0.8,1.8,2471.486,13.29,0.018,263.7
2023-08-01T06:07:03,42.805,6.029,0.001,-0.015,-0.038,105.0,104.0,101.0,13.3,1505.2,333.8,-0.8,1.8,2471.468,13.29,0.015,176.2
2023-08-01T06:10:03,42.805,6.029,-0.012,-0.004,-0.013,103.0,103.0,102.0,13.4,1505.2,352.1,-0.8,1.8,2471.43,13.29,0.012,251.6
2023-08-01T06:13:03,42.805,6.029,-0.034,0.003,-0.016,103.0,104.0,102.0,13.3,1505.2,349.9,-0.8,1.8,2471.458,13.29,0.034,275.0
2023-08-01T06:16:03,42.805,6.029,-0.002,-0.019,-0.025,103.0,103.0,102.0,13.4,1505.2,333.4,-0.8,1.8,2471.418,13.29,0.019,186.0
2023-08-01T06:19:03,42.805,6.029,-0.023,-0.015,-0.04,104.0,103.0,102.0,13.4,1505.2,331.4,-0.7,1.8,2471.407,13.29,0.027,236.9
2023-08-01T06:22:03,42.805,6.029,-0.006,0.001,-0.042,103.0,103.0,102.0,13.4,1505.2,350.5,-0.7,1.8,2471.426,13.29,0.006,279.5
2023-08-01T06:25:03,42.805,6.029,0.004,-0.011,-0.008,103.0,103.0,102.0,13.4,1505.2,348.0,-0.7,1.8,2471.423,13.29,0.011,160.0
2023-08-01T06:28:03,42.805,6.029,-0.016,-0.019,-0.055,104.0,104.0,102.0,13.3,1505.2,326.8,-0.8,1.8,2471.443,13.29,0.024,220.1
2023-08-01T06:31:03,42.805,6.029,-0.022,0.01,-0.006,104.0,104.0,102.0,13.3,1505.2,332.4,-0.8,1.8,2471.446,13.29,0.024,294.4
2023-08-01T06:34:03,42.805,6.029,-0.011,-0.011,-0.026,106.0,104.0,103.0,13.4,1505.2,351.5,-0.7,1.9,2471.464,13.29,0.015,225.0
2023-08-01T06:37:03,42.805,6.029,-0.015,-0.024,-0.033,104.0,105.0,102.0,13.4,1505.2,345.2,-0.8,1.8,2471.457,13.29,0.028,212.0
2023-08-01T06:40:03,42.805,6.029,0.0,-0.016,-0.009,104.0,104.0,101.0,13.4,1505.2,327.5,-0.7,1.8,2471.456,13.29,0.016,180.0
2023-08-01T06:43:03,42.805,6.029,0.017,-0.03,-0.015,104.0,104.0,103.0,13.4,1505.2,341.2,-0.8,1.8,2471.402,13.29,0.034,150.5
2023-08-01T06:46:03,42.805,6.029,-0.018,-0.021,-0.024,104.0,103.0,102.0,13.3,1505.2,328.3,-0.8,1.8,2471.413,13.29,0.027,220.6
2023-08-01T06:49:03,42.805,6.029,-0.017,0.015,0.001,104.0,104.0,103.0,13.4,1505.2,333.9,-0.8,1.8,2471.419,13.29,0.022,311.4
2023-08-01T06:52:03,42.805,6.029,-0.011,-0.011,-0.013,104.0,103.0,102.0,13.4,1505.2,332.5,-0.7,1.8,2471.436,13.29,0.015,225.0
2023-08-01T06:55:03,42.805,6.029,0.004,0.004,-0.022,103.0,104.0,102.0,13.3,1505.2,349.7,-0.8,1.8,2471.452,13.29,0.005,45.0
2023-08-01T06:58:03,42.805,6.029,-0.007,-0.019,-0.029,105.0,103.0,102.0,13.4,1505.2,331.4,-0.8,1.8,2471.42,13.29,0.02,200.2
2023-08-01T07:04:03,42.805,6.029,-0.019,-0.016,-0.011,104.0,105.0,103.0,13.4,1505.2,333.8,-0.8,1.8,2471.443,13.29,0.024,229.9
2023-08-01T07:07:03,42.805,6.029,-0.025,-0.005,-0.016,104.0,103.0,103.0,13.4,1505.2,347.3,-0.8,1.8,2471.466,13.29,0.025,258.7
2023-08-01T07:10:03,42.805,6.029,-0.019,0.003,-0.042,104.0,103.0,102.0,13.4,1505.2,347.6,-0.8,1.8,2471.497,13.29,0.019,279.0
2023-08-01T07:13:03,42.805,6.029,-0.025,-0.014,-0.047,104.0,104.0,103.0,13.4,1505.2,345.9,-0.7,1.8,2471.432,13.29,0.028,240.7
2023-08-01T07:16:03,42.805,6.029,-0.022,-0.013,-0.002,104.0,104.0,102.0,13.4,1505.2,331.5,-0.7,1.8,2471.46,13.29,0.025,239.4
2023-08-01T07:19:03,42.805,6.029,-0.039,0.016,-0.025,103.0,103.0,102.0,13.4,1505.2,345.3,-0.8,1.8,2471.452,13.29,0.042,292.3
2023-08-01T07:22:03,42.805,6.029,-0.037,0.02,-0.016,104.0,104.0,102.0,13.3,1505.2,323.9,-0.8,1.8,2471.404,13.29,0.042,298.4
2023-08-01T07:25:03,42.805,6.029,-0.022,-0.001,-0.016,106.0,101.0,103.0,13.4,1505.2,330.6,-0.8,1.8,2471.431,13.29,0.022,267.4
2023-08-01T07:28:03,42.805,6.029,-0.041,-0.011,-0.025,104.0,103.0,102.0,13.3,1505.2,335.7,-0.8,1.8,2471.444,13.29,0.042,255.0
2023-08-01T07:31:03,42.805,6.029,-0.028,-0.015,-0.031,104.0,103.0,102.0,13.4,1505.2,331.6,-0.8,1.8,2471.44,13.29,0.031,241.8
2023-08-01T07:34:03,42.805,6.029,-0.03,-0.013,-0.039,104.0,102.0,102.0,13.4,1505.2,351.7,-0.8,1.8,2471.387,13.29,0.032,246.6
2023-08-01T07:37:03,42.805,6.029,-0.016,-0.02,-0.01,105.0,103.0,102.0,13.4,1505.2,329.0,-0.8,1.8,2471.404,13.29,0.025,218.7
2023-08-01T07:40:03,42.805,6.029,-0.037,-0.01,-0.005,104.0,102.0,104.0,13.3,1505.2,342.3,-0.8,1.8,2471.381,13.29,0.038,254.9
2023-08-01T07:43:03,42.805,6.029,-0.023,-0.013,-0.042,104.0,104.0,102.0,13.4,1505.2,344.2,-0.8,1.8,2471.434,13.29,0.026,240.5
2023-08-01T07:46:03,42.805,6.029,-0.025,-0.009,-0.022,104.0,105.0,104.0,13.4,1505.2,340.9,-0.8,1.8,2471.391,13.29,0.026,250.2
2023-08-01T07:49:03,42.805,6.029,-0.008,-0.008,-0.029,104.0,104.0,103.0,13.4,1505.2,345.7,-0.8,1.8,2471.422,13.29,0.011,225.0
2023-08-01T07:52:03,42.805,6.029,-0.017,0.008,-0.038,102.0,103.0,103.0,13.4,1505.2,350.1,-0.8,1.8,2471.387,13.29,0.018,295.2
2023-08-01T07:55:03,42.805,6.029,-0.025,-0.004,-0.035,104.0,103.0,103.0,13.4,1505.2,324.2,-0.8,1.8,2471.434,13.29,0.025,260.9
2023-08-01T07:58:03,42.805,6.029,-0.002,-0.019,-0.045,105.0,104.0,101.0,13.3,1505.2,329.8,-0.8,1.8,2471.402,13.29,0.019,186.0
2023-08-01T08:04:03,42.805,6.029,-0.027,0.014,-0.005,104.0,103.0,102.0,13.3,1505.2,350.3,-0.8,1.7,2471.452,13.28,0.03,297.4
2023-08-01T08:07:03,42.805,6.029,-0.008,0.006,-0.003,104.0,104.0,102.0,13.4,1505.2,345.9,-0.8,1.8,2471.463,13.29,0.01,306.9
2023-08-01T08:10:03,42.805,6.029,-0.033,-0.008,-0.035,104.0,103.0,103.0,13.4,1505.2,322.5,-0.8,1.8,2471.439,13.29,0.033,256.4
2023-08-01T08:13:03,42.805,6.029,-0.042,-0.004,-0.03,105.0,104.0,102.0,13.4,1505.2,332.9,-0.7,1.8,2471.414,13.29,0.042,264.6
2023-08-01T08:16:03,42.805,6.029,-0.029,-0.01,0.008,103.0,104.0,102.0,13.4,1505.2,321.4,-0.8,1.8,2471.435,13.29,0.03,251.0
2023-08-01T08:19:03,42.805,6.029,-0.009,0.001,-0.029,104.0,104.0,102.0,13.4,1505.2,344.5,-0.7,1.8,2471.425,13.29,0.009,276.3
2023-08-01T08:22:03,42.805,6.029,0.005,-0.002,0.008,104.0,105.0,102.0,13.3,1505.2,329.8,-0.8,1.8,2471.44,13.29,0.005,111.8
2023-08-01T08:25:03,42.805,6.029,-0.032,0.0,-0.043,104.0,104.0,102.0,13.3,1505.2,326.5,-0.8,1.9,2471.402,13.29,0.032,270.0
2023-08-01T08:28:03,42.805,6.029,-0.028,-0.013,-0.054,105.0,103.0,102.0,13.3,1505.2,335.1,-0.7,1.8,2471.414,13.29,0.03,245.1
2023-08-01T08:31:03,42.805,6.029,-0.021,-0.005,-0.031,104.0,105.0,102.0,13.3,1505.2,331.9,-0.7,1.8,2471.405,13.29,0.021,256.6
2023-08-01T08:34:03,42.805,6.029,-0.028,-0.007,-0.037,104.0,104.0,103.0,13.4,1505.2,329.0,-0.8,1.8,2471.427,13.29,0.028,256.0
2023-08-01T08:37:03,42.805,6.029,-0.03,-0.011,-0.013,104.0,103.0,102.0,13.4,1505.2,354.2,-0.8,1.8,2471.373,13.29,0.031,249.9
2023-08-01T08:40:03,42.805,6.029,-0.02,-0.022,-0.014,104.0,104.0,102.0,13.4,1505.2,334.8,-0.8,1.8,2471.391,13.29,0.029,222.3
2023-08-01T08:43:03,42.805,6.029,-0.03,0.005,-0.003,104.0,103.0,102.0,13.4,1505.2,325.2,-0.8,1.8,2471.418,13.29,0.03,279.5
2023-08-01T08:46:03,42.805,6.029,-0.011,-0.017,-0.039,105.0,104.0,102.0,13.3,1505.2,331.2,-0.8,1.8,2471.391,13.29,0.02,212.9
2023-08-01T08:49:03,42.805,6.029,-0.021,0.008,-0.024,105.0,103.0,102.0,13.4,1505.2,354.4,-0.8,1.8,2471.399,13.29,0.022,290.9
2023-08-01T08:52:03,42.805,6.029,-0.012,-0.001,-0.032,104.0,103.0,103.0,13.4,1505.2,331.6,-0.7,1.8,2471.34,13.29,0.012,265.2
2023-08-01T08:55:03,42.805,6.029,-0.039,-0.006,-0.04,104.0,105.0,102.0,13.4,1505.2,332.4,-0.8,1.8,2471.352,13.29,0.039,261.3
2023-08-01T08:58:03,42.805,6.029,-0.014,-0.003,0.021,104.0,103.0,102.0,13.4,1505.2,339.2,-0.8,1.8,2471.354,13.29,0.014,257.9
2023-08-01T09:04:03,42.805,6.029,-0.017,-0.01,-0.035,105.0,104.0,102.0,13.3,1505.2,335.7,-0.8,1.8,2471.383,13.29,0.019,239.5
2023-08-01T09:07:03,42.805,6.029,-0.018,0.001,-0.015,104.0,103.0,102.0,13.4,1505.2,331.5,-0.8,1.8,2471.397,13.29,0.018,273.2
2023-08-01T09:10:03,42.805,6.029,-0.015,0.009,-0.023,105.0,104.0,102.0,13.3,1505.2,335.0,-0.7,1.8,2471.411,13.29,0.017,301.0
2023-08-01T09:13:03,42.805,6.029,-0.044,0.011,-0.014,104.0,104.0,102.0,13.4,1505.2,333.4,-0.7,1.8,2471.408,13.29,0.045,284.0
2023-08-01T09:16:03,42.805,6.029,-0.044,0.0,-0.036,104.0,104.0,102.0,13.3,1505.2,338.2,-0.8,1.8,2471.425,13.29,0.044,270.0
2023-08-01T09:19:03,42.805,6.029,-0.038,0.015,-0.012,105.0,104.0,102.0,13.4,1505.2,331.0,-0.8,1.8,2471.362,13.29,0.04,291.5
2023-08-01T09:22:03,42.805,6.029,-0.008,-0.004,-0.012,104.0,104.0,102.0,13.3,1505.2,330.7,-0.8,1.8,2471.404,13.29,0.008,243.4
2023-08-01T09:25:03,42.805,6.029,-0.012,0.028,-0.041,104.0,104.0,102.0,13.4,1505.2,351.7,-0.8,1.8,2471.36,13.29,0.03,336.8
2023-08-01T09:28:03,42.805,6.029,-0.031,0.011,-0.004,105.0,105.0,103.0,13.3,1505.2,341.5,-0.7,1.8,2471.377,13.29,0.032,289.5
2023-08-01T09:31:03,42.805,6.029,-0.03,0.001,-0.032,105.0,103.0,102.0,13.4,1505.2,343.0,-0.8,1.9,2471.356,13.29,0.03,271.9
2023-08-01T09:34:03,42.805,6.029,-0.044,0.019,-0.011,107.0,103.0,102.0,13.3,1505.2,342.7,-0.8,1.8,2471.321,13.29,0.047,293.4
2023-08-01T09:37:03,42.805,6.029,-0.023,0.004,-0.028,105.0,105.0,102.0,13.4,1505.2,343.5,-0.8,1.8,2471.321,13.29,0.023,279.9
2023-08-01T09:40:03,42.805,6.029,-0.028,0.001,-0.025,103.0,105.0,103.0,13.4,1505.2,348.8,-0.8,1.8,2471.334,13.29,0.028,272.0
2023-08-01T09:43:03,42.805,6.029,-0.037,0.013,0.003,105.0,104.0,103.0,13.3,1505.2,331.0,-0.8,1.8,2471.333,13.29,0.039,289.4
2023-08-01T09:46:03,42.805,6.029,-0.009,-0.012,-0.035,105.0,104.0,102.0,13.4,1505.2,346.5,-0.8,1.8,2471.344,13.29,0.015,216.9
2023-08-01T09:49:03,42.805,6.029,-0.038,0.009,-0.042,106.0,103.0,104.0,13.3,1505.2,341.9,-0.8,1.8,2471.341,13.29,0.039,283.3
2023-08-01T09:52:03,42.805,6.029,-0.02,0.009,-0.019,105.0,105.0,102.0,13.4,1505.2,334.8,-0.8,1.8,2471.321,13.29,0.021,294.2